Regional Weather Roundup
Issued by NWS

Home | Current Version | Previous Version | Text Only | Print | Product List | Glossary Off
Versions: 1 2 3 4 5 6 7 8 9 10 11 12 13 14 15 16 17 18 19 20 21 22 23 24 25 26 27 28 29 30 31 32 33 34 35 36 37 38 39 40 41 42 43 44 45 46 47 48 49 50

000
ASUS43 KLSX 280959
RWRMO

WEATHER SUMMARY FOR MISSOURI
NATIONAL WEATHER SERVICE SPRINGFIELD MO
500 AM CDT TUE JUL 28 2015

NOTE: "FAIR" INDICATES FEW OR NO CLOUDS BELOW 12,000 FEET WITH NO
       SIGNIFICANT WEATHER AND/OR OBSTRUCTIONS TO VISIBILITY.
       CURRENT SKY AND/OR WEATHER CONDITIONS ARE NOT AVAILABLE FOR
       CHILLICOTHE AND FARMINGTON.

MOZ001>031-035>038-043-044-053-054-281100-
...NORTHERN AND WESTERN MISSOURI...

CITY           SKY/WX    TMP DP  RH WIND       PRES   REMARKS
KANSAS CTY INT CLEAR     76  74  93 SE8       29.88S
KANSAS C DTWN  CLEAR     81  74  79 S5        29.87R
LEE`S SUMMIT   CLEAR     79  74  84 S6        29.89S
ST JOSEPH      CLEAR     75  72  90 SE3       29.86S
KIRKSVILLE     MOCLDY    73  69  87 SE7       29.93R

$$
MOZ066>068-077>081-088>096-101>105-281100-
...SOUTHWEST MISSOURI...

CITY           SKY/WX    TMP DP  RH WIND       PRES   REMARKS
SPRINGFIELD    CLEAR     78  73  84 S8        29.94R
JOPLIN         CLEAR     79  72  79 S9        29.92R

$$
MOZ032>034-039>042-045>050-055>058-069>072-281100-
...CENTRAL MISSOURI...

CITY           SKY/WX    TMP DP  RH WIND       PRES   REMARKS
COLUMBIA       PTCLDY    73  71  93 SE5       29.93S
JEFFERSON CITY PTCLDY    74  72  93 E3        29.92R
ROLLA          CLEAR     75  73  93 S8        29.94R
SEDALIA        CLEAR     76  73  91 S6        29.92S
OSAGE BEACH    CLEAR     75  72  88 CALM      29.93S

$$
MOZ051-052-059>065-281100-
...EAST CENTRAL MISSOURI...

CITY           SKY/WX    TMP DP  RH WIND       PRES   REMARKS
ST LOUIS INTL  PTCLDY    77  71  82 CALM      29.94S
SPIRIT OF STL  CLEAR     73  73 100 CALM      29.92S
ST CHARLES     CLEAR     73  72  96 CALM      29.93R

$$
MOZ072>076-082>087-097>100-106>115-281100-
...SOUTH CENTRAL AND SOUTHEAST MISSOURI...

CITY           SKY/WX    TMP DP  RH WIND       PRES   REMARKS
CAPE GIRARDEAU CLEAR     75  74  96 CALM      29.94R
FARMINGTON     CLEAR     73  72  94 CALM      30.00S
POPLAR BLUFF   CLEAR     76  74  93 CALM      29.93R
WEST PLAINS    CLEAR     76  71  85 SW3       29.98R

$$


USA.gov is the U.S. government's official web portal to all federal, state and local government web resources and services.